STARLINK-33598 (62771 NORAD) Tracking and Keplerian Element Data

This shows tracking and keplerian element data for the satellite.

Feedback or suggestion? Click here.




ElementValue
Catalog62771
NameSTARLINK-33598
Epoch Orbit5216
Epoch Day353.21733529
Epoch Year2025
RAAN336.0121
Inclination53.1622
Eccentricity0.0001013
Argument of Perigee75.8608
Mean Anonmoly284.2505
Mean Motion15.30203382
Decay Rate0.00017271
L11 62771U 25015P 25353.21733529 .00017271 00000+0 59382-3 0 9993
L22 62771 53.1622 336.0121 0001013 75.8608 284.2505 15.30203382 52166



Live tracking and technical data element details for STARLINK-33598 (NORAD 62771). STARLINK-33598 can be tracked NOW for your location showing map with azimuth and elevation plus other details from your city location.







IsCatalogInMostPopularTable: catalog: 62771, numindb: 265
Update: records affected: 1



GetName: 62771 STARLINK-33598

Hit Count: updated at: Sun, 19 Apr 2026 07:58:54 GMT